Regional Weather Roundup
Issued by NWS Charleston, SC

Current Version | Previous Version | Text Only | Print | Product List | Glossary Off
Versions: 1 2 3 4 5 6 7 8 9 10 11 12 13 14 15 16 17 18 19 20 21 22 23 24 25 26 27 28 29 30 31 32 33 34 35 36 37 38 39 40 41 42 43 44 45 46 47 48 49 50

000
ASUS42 KCHS 290027
RWRCHS

REGIONAL WEATHER ROUNDUP
NATIONAL WEATHER SERVICE CHARLESTON SC
800 PM EDT WED JUN 28 2017

NOTE: "FAIR" INDICATES FEW OR NO CLOUDS BELOW 12,000 FEET WITH NO
SIGNIFICANT WEATHER AND/OR OBSTRUCTIONS TO VISIBILITY.

NOT ALL STATIONS ARE QUALITY CONTROLLED. USE DATA WITH CAUTION...
ESPECIALLY DEWPOINT OBSERVATIONS.

SCZ027-030-031-034>040-042>050-290100-
...SOUTHEAST SOUTH CAROLINA...

CITY           SKY/WX    TMP DP  RH WIND       PRES   REMARKS
N CHARLESTON   PTCLDY    81  56  42 E12       30.15R
6HR MIN TEMP:  81; 6HR MAX TEMP:  86;

WATERFRONT PRK   N/A     83  68  60 E13       30.13R
JOHNS ISLAND   FAIR      79  64  61 E8        30.15S
PINOPOLIS        N/A     84  61  45 VRB3      30.08R
MONCKS CORNER  FAIR      77  55  47 CALM      30.15R
SUMMERVILLE    FAIR      81  59  47 SE5       30.16R
BEAUFORT MCAS  PTCLDY    81  69  67 E9        30.14R
6HR MIN TEMP:  81; 6HR MAX TEMP:  85;

BEAUFORT ARPT  FAIR      79  68  69 E7        30.14R
HILTON HEAD IS PTCLDY    81  72  74 E8G16     30.15R
WALTERBORO     CLEAR     79  63  57 SE5       30.15R
ALLENDALE      MOCLDY    82  64  54 SE5       30.13R

...SOUTHERN MIDLANDS AND PEE DEE...

CITY           SKY/WX    TMP DP  RH WIND       PRES   REMARKS
GEORGETOWN     FAIR      77  61  57 E6        30.16S
KINGSTREE      FAIR      77  59  53 E5        30.15R
ORANGEBURG     CLEAR     82  59  45 SE5       30.14S
6HR MIN TEMP:  82; 6HR MAX TEMP:  87;

BARNWELL       FAIR      82  68  61 SE7       30.14R
AIKEN          FAIR      79  59  50 E6        30.18R
MANNING        FAIR      79  59  50 SE5       30.15R
COLUMBIA       PTCLDY    84  57  39 E7        30.13R
6HR MIN TEMP:  84; 6HR MAX TEMP:  88;

SUMTER         CLEAR     83  58  42 SE5       30.13R
6HR MIN TEMP:  83; 6HR MAX TEMP:  88;

FLORENCE       CLEAR     83  56  39 SE6       30.15R
6HR MIN TEMP:  83; 6HR MAX TEMP:  87;

MYRTLE BEACH   CLEAR     79  63  57 SE10      30.17R
N MYRTLE BEACH CLEAR     79  60  52 SE8       30.16R
6HR MIN TEMP:  79; 6HR MAX TEMP:  83;


$$

GAZ063-065-086>088-099>101-113>116-118-119-134>141-150-290100-
...SOUTHEAST GEORGIA...

CITY           SKY/WX    TMP DP  RH WIND       PRES   REMARKS
SAVANNAH ARPT  MOCLDY    82  67  60 E17       30.13R
6HR MIN TEMP:  82; 6HR MAX TEMP:  88;

HUNTER AAF     PTCLDY    81  71  71 E12       30.11R
6HR MIN TEMP:  81; 6HR MAX TEMP:  87;

FORT STEWART   PTCLDY    81  69  65 E10       30.10S
6HR MIN TEMP:  81; 6HR MAX TEMP:  87;

STATESBORO     CLEAR     82  68  63 SE5       30.14R
SYLVANIA       CLEAR     81  70  69 SE3       30.15R
CLAXTON        FAIR      80  68  67 NE9       30.13R

...CSRA...CENTRAL AND FAR SOUTHEAST GEORGIA...

CITY           SKY/WX    TMP DP  RH WIND       PRES   REMARKS
THOMSON        MOCLDY    80  65  58 S6        30.18R
AUGUSTA-BUSH   CLEAR     84  65  52 SE6       30.11R
6HR MIN TEMP:  84; 6HR MAX TEMP:  90;

AUGUSTA-DANIEL CLEAR     86  59  39 SE8       30.13R
SWAINSBORO     FAIR      81  68  65 SE8       30.14R
VIDALIA        CLEAR     81  68  65 SE5       30.12S
EASTMAN        FAIR      83  56  39 SE3       30.13R
HAZLEHURST     FAIR      83  66  56 SE5       30.10S
ALMA           CLOUDY    82  66  58 E5        30.10S
6HR MIN TEMP:  82; 6HR MAX TEMP:  88;

WAYCROSS       PTCLDY    82  74  77 E5        30.11R
JESUP          FAIR      81  66  61 SE6       30.13R
BAXLEY         FAIR      81  70  69 E5        30.11S
BRUNSWICK      MOCLDY    81  73  78 E12       30.12F
SAINT SIMONS   MOCLDY    81  73  76 E10       30.11S
6HR MIN TEMP:  82; 6HR MAX TEMP:  85;


$$

SCZ027-028-034-036>038-045-046-048>050-GAZ119-141-290100-
...LAKE AND SUPPLEMENTAL COASTAL OBSERVATIONS...

STATION/POSITION TIME  TEMP    WIND        PRES    WAVE   SWELL
                       AIR SEA DIR/SP/G            HT/PER HT/PER/DIR
                 (UTC) (F)     (DEG/KT/KT) (MB)    (FT/S) (FT/S/D)
WINYAH BAY       2330   80     110/  8     1021.0S
LAKE MURRAY      2330   84     100/  4/  7 1019.3R
ACE BASIN NERRS  2345   80      90/  4     1021.0R
FORT PULASKI     0000   81 83  100/ 17/ 20 1020.8
SAPELO ISLAND    0000   81      80/  8     1020.0

$$

ANZ835-935-AMZ111-154-330-350-352-354-370-450-454-472-290100-
...C-MAN AND BUOY OBSERVATIONS...

STATION/POSITION TIME  TEMP    WIND        PRES    WAVE   SWELL
                       AIR SEA DIR/SP/G            HT/PER HT/PER/DIR
                 (UTC) (F)     (DEG/KT/KT) (MB)    (FT/S) (FT/S/D)
BUOY 41004       0000   81 80   70/ 16/ 19 1020.5
BUOY 41008       2350   81 82   70/ 17/ 19 1019.6R   4/ 5
FOLLY BEACH CMAN 0000   80      80/ 16/ 18 1021.5R
CAPERS NEARSHORE NOT AVBL
FRIPP NEARSHORE  NOT AVBL


STATION/POSITION TIME  TEMP    WIND        PRES    WAVE   SWELL
                       AIR SEA DIR/SP/G            HT/PER HT/PER/DIR
                 (UTC) (F)     (DEG/KT/KT) (MB)    (FT/S) (FT/S/D)
5E ST. MARYS GA  0000      81                N/A     3/ 5
FRYING PAN BUOY  0010   79 80   80/ 12/ 14 1021.1
BUOY 41025       2350   78 83   40/ 12/ 16 1022.0F   2/ 6   2/ 50/ 7
CAPE LOOKOUT NC  0000   79      80/ 11/ 13 1021.7R
BUOY 41002       2350   80 81   60/ 14/ 16 1020.4R   3/ 5   2/140/ 7
BUOY 41010       0010   81 84  100/ 12/ 14 1018.1
ST AUGUSTINE FL  0000   81 81   80/  8/  9 1018.9R


$$




USA.gov is the U.S. government's official web portal to all federal, state and local government web resources and services.